sat.trackr.live / text

‹ back to catalog

SUPERVIEW NEO-2 02

NORAD 53130 · 2022-082C

PAYLOAD ACTIVE UNKNOWN

§ Identity

Operator
Country
PRC
Launch date
2022-07-15
Launch site
TAISC
Launch vehicle
Mass (kg)
RCS (m²)

External: N2YO · Heavens-Above · Gunter

§ Orbital elements

Epoch: 2026-09-20T22:57:46.814112Z

Period
94.46 min
Inclination
97.3938°
Eccentricity
0.0001731
Mean motion
15.24502974 rev/d
Perigee alt
491.1 km
Apogee alt
493.5 km
Semi-major
6,870.4 km
B*
1.2875e-4
RAAN
272.7260°
Arg perigee
88.7230°
Mean anomaly
271.4206°
Rev number
23,280

§ Raw data

SUPERVIEW NEO-2 021 53130U 22082C   26263.95679183  .00003094  00000+0  12875-3 0  99942 53130  97.3938 272.7260 0001731  88.7230 271.4206 15.24502974232805

JSON: /api/v1/satellites/53130 · /tle

For live sub-satellite position, see the globe view (requires WebGL).

§ Visibility from observer

Set your observer location to see the next 7 days of passes ≥ 10°. The values pass through the URL so the page stays shareable.

No JS? Fill the form by hand. The geolocation button needs JavaScript.